Date,TemperatureHighF,TemperatureAvgF,TemperatureLowF,DewpointHighF,DewpointAvgF,DewpointLowF,HumidityHigh,HumidityAvg,HumidityLow,PressureMaxIn,PressureMinIn,WindSpeedMaxMPH,WindSpeedAvgMPH,GustSpeedMaxMPH,PrecipitationSumIn
2013-1-1,28,15,-2,27,10,-5,95,82,69,29.93,29.64,10,2,22,0.00
2013-1-2,13,3,-14,11,-1,-17,100,84,71,30.21,29.83,8,1,18,0.00
2013-1-3,13,-5,-20,7,-10,-24,91,81,57,30.22,29.86,1,0,4,0.00
2013-1-4,30,24,10,27,21,8,92,86,74,29.87,29.71,6,1,21,0.00
2013-1-5,31,20,3,26,14,0,91,80,66,30.21,29.75,11,3,19,0.00
2013-1-6,31,24,9,30,22,7,96,91,84,30.16,29.86,4,0,9,0.00
2013-1-7,22,13,3,19,11,0,93,89,75,30.35,29.95,4,1,7,0.00
2013-1-8,37,27,9,25,20,7,96,78,57,30.35,30.14,9,2,23,0.00
2013-1-9,41,27,9,31,20,7,96,77,55,30.34,29.87,9,2,20,0.00
2013-1-10,38,32,22,31,26,20,96,79,68,30.54,29.98,12,4,25,0.00
2013-1-11,38,29,16,37,24,14,95,83,52,30.53,30.05,8,2,16,0.00
2013-1-12,45,38,30,41,37,29,98,94,85,30.11,30.01,4,1,11,0.00
2013-1-13,52,39,30,47,37,29,99,94,76,30.10,29.84,7,1,23,0.00
2013-1-14,49,40,32,47,35,26,99,84,60,30.27,29.75,12,2,22,0.00
2013-1-15,32,28,21,27,21,18,91,76,61,30.32,30.22,6,1,9,0.00
2013-1-16,30,27,19,28,24,18,96,87,72,30.22,29.74,3,0,14,0.00
2013-1-17,31,18,4,27,11,-6,93,72,51,30.15,29.74,8,1,21,0.00
2013-1-18,18,5,-9,8,-4,-13,85,67,44,30.31,30.12,11,1,17,0.00
2013-1-19,40,29,18,26,20,8,91,68,54,30.18,29.71,7,2,21,0.00
2013-1-20,44,32,12,33,22,8,92,65,49,29.92,29.38,18,5,31,0.00
2013-1-21,16,10,2,8,3,-2,92,75,53,30.01,29.78,3,0,11,0.00
2013-1-22,11,5,-2,7,0,-13,92,78,57,30.03,29.76,10,1,14,0.00
2013-1-23,-2,-9,-18,-9,-16,-22,80,70,55,30.14,30.03,7,1,13,0.00
2013-1-24,6,-6,-19,-7,-14,-23,82,68,45,30.30,30.08,12,2,20,0.00
2013-1-25,10,2,-10,2,-6,-14,84,70,55,30.33,30.06,3,0,9,0.00
2013-1-26,10,5,-5,4,-1,-9,87,76,52,30.25,30.05,6,1,11,0.00
2013-1-27,14,5,-3,4,-3,-7,88,72,40,30.47,30.25,6,1,9,0.00
2013-1-28,23,13,-3,21,9,-6,92,82,55,30.43,29.95,6,1,17,0.00
2013-1-29,37,28,21,34,24,19,92,86,74,30.15,29.92,9,1,22,0.00
2013-1-30,57,48,37,54,46,33,96,91,80,29.92,29.27,7,3,25,0.00
2013-1-31,53,32,21,52,22,8,96,68,53,29.49,28.98,17,8,38,0.00
2013-2-1,21,14,9,12,7,2,84,74,57,30.06,29.49,10,2,20,0.00
2013-2-2,20,12,3,11,6,0,90,76,57,30.13,29.98,7,1,14,0.00
2013-2-3,27,14,2,14,7,-1,91,78,41,29.99,29.71,4,0,12,0.00
2013-2-4,20,13,1,14,6,-4,91,74,49,29.89,29.69,12,2,21,0.00
2013-2-5,20,8,-10,9,-3,-14,86,65,38,29.99,29.85,3,0,8,0.00
2013-2-6,25,18,4,22,10,-6,92,69,46,30.34,29.83,11,2,19,0.00
2013-2-7,14,4,-6,2,-5,-11,84,65,38,30.53,30.34,3,0,7,0.00
2013-2-8,24,20,9,19,14,1,87,79,49,30.37,29.91,12,5,31,0.00
2013-2-9,20,9,-8,13,2,-12,88,75,59,30.32,29.91,12,4,22,0.00
2013-2-10,25,7,-13,8,-2,-17,89,70,35,30.43,30.23,4,0,6,0.00
2013-2-11,39,31,3,36,23,0,96,77,36,30.22,29.57,7,2,20,0.00
2013-2-12,35,33,29,33,29,26,96,85,77,29.83,29.56,9,2,18,0.00
2013-2-13,36,30,28,27,25,22,92,80,61,29.82,29.73,4,0,8,0.00
2013-2-14,33,28,23,26,22,19,93,78,57,29.91,29.73,5,0,7,0.00
2013-2-15,42,35,29,32,27,22,86,71,50,29.93,29.81,8,1,19,0.00
2013-2-16,30,24,16,21,13,5,81,64,49,29.98,29.89,8,2,13,0.00
2013-2-17,16,10,8,6,4,1,86,74,63,29.89,29.65,12,4,22,0.00
2013-2-18,21,11,3,2,-1,-6,78,62,31,30.12,29.81,16,4,23,0.00
2013-2-19,44,27,5,31,16,0,96,67,35,30.11,29.58,10,2,29,0.00
2013-2-20,32,24,20,31,22,15,96,90,78,29.74,29.58,9,2,18,0.00
2013-2-21,20,14,7,17,9,2,90,80,73,30.35,29.74,11,2,18,0.00
2013-2-22,33,24,5,26,19,2,93,82,67,30.41,30.20,3,1,10,0.00
2013-2-23,34,32,30,29,26,21,88,77,67,30.20,29.86,10,4,21,0.00
2013-2-24,35,32,29,33,29,27,95,89,78,29.93,29.76,8,1,15,0.00
2013-2-25,34,30,28,31,29,27,97,95,88,30.22,29.93,2,0,5,0.00
2013-2-26,44,34,27,34,28,26,99,82,54,30.29,30.07,16,2,26,0.00
2013-2-27,39,34,32,33,30,26,96,84,72,30.08,29.62,15,5,32,0.00
2013-2-28,43,36,31,36,32,29,97,87,68,29.62,29.54,6,1,13,0.00
2013-3-1,32,30,28,31,28,26,97,91,83,29.75,29.59,6,2,15,0.00
2013-3-2,29,26,21,27,24,18,96,91,83,29.77,29.72,5,2,11,0.00
2013-3-3,28,24,21,24,21,18,93,88,82,29.74,29.66,4,1,9,0.00
2013-3-4,26,22,21,21,19,17,94,89,78,29.88,29.68,6,1,12,0.00
2013-3-5,32,26,21,28,23,19,98,89,80,30.09,29.88,4,0,8,0.00
2013-3-6,42,32,16,31,24,14,96,76,59,30.17,30.07,12,4,26,0.00
2013-3-7,35,31,29,25,22,20,79,70,62,30.18,30.13,11,2,18,0.00
2013-3-8,37,30,22,27,24,20,92,78,65,30.31,30.13,8,2,18,0.00
2013-3-9,47,29,15,30,22,13,94,78,46,30.35,30.27,5,0,8,0.00
2013-3-10,56,39,21,31,24,20,95,61,26,30.31,30.10,7,1,16,0.00
2013-3-11,53,47,36,32,28,25,79,49,34,30.15,29.93,10,2,20,0.00
2013-3-12,48,45,34,46,41,32,97,88,58,29.95,29.68,8,2,19,0.00
2013-3-13,39,33,24,35,30,23,98,91,66,29.83,29.72,5,0,9,0.00
2013-3-14,27,21,15,26,17,6,97,83,66,29.88,29.71,9,2,18,0.00
2013-3-15,33,21,7,26,13,4,93,73,40,29.89,29.56,6,1,16,0.00
2013-3-16,26,21,11,22,14,8,92,75,55,29.90,29.70,8,2,18,0.00
2013-3-17,22,14,5,14,6,1,100,73,44,30.33,29.89,11,2,20,0.00
2013-3-18,34,19,1,10,4,-2,88,57,31,30.40,30.08,10,1,20,0.00
2013-3-19,31,28,25,27,24,8,95,86,38,30.09,29.70,14,4,32,0.00
2013-3-20,31,26,21,27,22,18,95,85,68,29.70,29.63,6,1,12,0.00
2013-3-21,35,26,19,22,17,13,90,70,42,29.70,29.60,7,1,13,0.00
2013-3-22,33,24,11,23,18,9,93,81,59,29.73,29.62,8,2,14,0.00
2013-3-23,33,29,24,24,23,19,94,78,59,29.79,29.65,18,5,23,0.00
2013-3-24,36,30,19,26,24,16,92,77,60,29.86,29.78,6,2,14,0.00
2013-3-25,43,26,15,29,-3,-100,93,54,48,29.80,29.56,6,1,11,0.00
2013-3-26,41,34,27,28,25,22,89,71,50,29.80,29.60,7,1,14,0.00
2013-3-27,44,34,25,32,28,23,95,79,55,29.93,29.77,7,1,14,0.00
2013-3-28,46,36,32,36,33,30,100,88,66,30.06,29.92,4,1,10,0.00
2013-3-29,45,37,32,39,33,30,98,87,65,30.08,30.01,6,1,14,0.00
2013-3-30,47,35,24,32,24,18,97,70,33,30.11,30.03,7,1,15,0.00
2013-3-31,54,40,22,36,24,-100,92,61,32,30.08,29.71,10,2,18,0.00
2013-4-1,45,37,27,41,30,16,95,77,42,29.77,29.50,14,3,23,0.00
2013-4-2,30,25,20,20,16,12,91,70,53,29.87,29.75,12,5,24,0.00
2013-4-3,37,30,23,21,14,10,69,52,35,30.17,29.86,15,7,25,0.00
2013-4-4,50,35,17,23,18,14,89,53,30,30.24,29.90,8,2,18,0.00
2013-4-5,45,39,29,32,23,18,80,54,41,29.95,29.78,10,3,24,0.00
2013-4-6,37,28,21,18,10,7,69,49,30,30.27,29.96,11,4,20,0.00
2013-4-7,55,45,27,36,24,11,66,43,33,30.23,29.80,11,3,23,0.00
2013-4-8,53,44,37,37,32,30,80,66,44,30.15,29.85,8,2,18,0.00
2013-4-9,51,44,38,46,40,31,96,86,46,30.03,29.77,11,2,24,0.00
2013-4-10,48,42,39,43,40,38,98,93,79,30.01,29.91,4,0,8,0.00
2013-4-11,39,34,28,38,25,17,98,72,47,30.19,29.93,8,1,12,0.00
2013-4-12,34,32,30,31,26,18,88,79,54,30.19,29.77,18,6,34,0.00
2013-4-13,47,39,34,38,34,30,97,84,65,29.90,29.75,7,1,18,0.00
2013-4-14,43,36,28,38,33,27,97,90,70,30.22,29.87,9,1,11,0.02
2013-4-15,60,42,23,37,32,22,97,70,40,30.34,30.19,8,1,19,0.01
2013-4-16,57,53,47,53,43,35,95,71,53,30.23,29.93,11,3,25,0.11
2013-4-17,53,43,31,45,34,28,96,73,42,30.35,30.09,9,2,16,0.12
2013-4-18,61,47,28,47,34,26,94,64,46,30.35,29.91,11,4,27,0.04
2013-4-19,74,64,45,59,54,44,96,71,53,29.92,29.47,12,4,28,0.86
2013-4-20,50,41,32,44,31,20,96,70,45,30.24,29.65,16,4,26,0.93
2013-4-21,43,33,26,24,19,11,81,57,29,30.68,30.25,9,2,18,0.00
2013-4-22,56,40,21,26,21,18,90,50,25,30.70,30.51,12,4,28,0.00
2013-4-23,53,43,34,39,30,21,80,62,48,30.53,30.14,14,6,30,0.00
2013-4-24,75,56,32,53,41,31,96,64,27,30.14,29.64,9,2,19,0.06
2013-4-25,59,45,31,54,34,27,91,65,38,30.29,29.64,12,4,18,0.07
2013-4-26,52,40,28,41,32,25,95,76,52,30.45,30.27,8,1,13,0.01
2013-4-27,61,44,27,40,30,20,97,65,21,30.45,30.29,7,1,12,0.01
2013-4-28,72,52,29,40,33,-100,93,56,28,30.32,30.11,8,1,15,0.01
2013-4-29,66,57,45,47,41,38,82,56,38,30.19,30.13,6,1,13,0.00
2013-4-30,71,59,47,51,46,41,92,65,44,30.28,30.19,6,1,11,0.02
2013-5-1,78,62,41,47,43,38,91,55,26,30.44,30.27,7,1,15,0.01
2013-5-2,82,63,42,50,44,38,87,53,31,30.44,30.30,14,3,24,0.00
2013-5-3,74,58,45,43,38,28,83,48,28,30.49,30.32,7,2,20,0.00
2013-5-4,75,59,39,49,44,38,96,63,31,30.34,30.18,8,1,14,0.00
2013-5-5,79,62,43,45,40,35,83,50,26,30.25,30.10,5,1,10,0.00
2013-5-6,79,61,42,49,40,31,81,49,24,30.20,30.04,7,1,12,0.00
2013-5-7,82,64,43,51,45,37,92,54,23,30.14,30.03,4,1,9,0.00
2013-5-8,79,63,47,59,52,44,96,72,37,30.16,30.02,10,3,23,0.16
2013-5-9,70,62,50,62,57,49,98,84,65,30.02,29.85,6,1,16,0.26
2013-5-10,71,59,51,61,54,-100,99,88,65,29.99,29.79,5,0,11,0.04
2013-5-11,70,61,47,62,56,46,98,86,69,29.80,29.61,8,2,17,0.20
2013-5-12,59,48,40,51,39,-100,98,75,40,29.76,29.62,8,1,17,0.02
2013-5-13,48,42,34,37,31,26,96,65,50,30.05,29.73,11,2,20,0.02
2013-5-14,56,43,31,36,32,28,98,70,38,30.10,29.98,8,1,17,0.05
2013-5-15,65,46,28,50,37,27,96,75,32,30.03,29.57,10,2,23,0.06
2013-5-16,72,51,43,50,26,-100,98,69,31,29.90,29.60,13,2,22,0.05
2013-5-17,64,51,40,46,36,-100,94,71,44,30.22,29.90,6,1,13,0.00
2013-5-18,72,54,33,50,39,32,98,65,27,30.30,30.21,3,0,12,0.00
2013-5-19,70,55,42,55,49,40,95,81,53,30.28,30.11,6,1,14,0.20
2013-5-20,66,58,52,63,57,51,99,96,84,30.11,29.97,4,0,12,0.32
2013-5-21,69,62,53,66,59,52,99,93,76,29.99,29.80,15,1,28,0.95
2013-5-22,81,65,56,69,62,54,99,90,62,29.88,29.74,10,2,19,1.07
2013-5-23,75,66,60,67,63,60,99,91,67,29.78,29.70,8,1,19,2.54
2013-5-24,60,48,43,60,47,42,99,97,94,30.02,29.72,7,2,20,0.71
2013-5-25,43,40,35,42,39,34,97,95,93,30.02,29.91,8,2,23,1.65
2013-5-26,46,41,35,44,40,34,98,95,91,30.09,29.85,7,2,17,0.72
2013-5-27,66,48,31,46,39,31,99,75,39,30.18,30.06,8,2,15,0.02
2013-5-28,73,55,34,51,43,33,98,69,33,30.22,30.10,7,1,14,0.01
2013-5-29,68,61,51,64,56,46,98,87,59,30.10,29.92,8,2,19,0.24
2013-5-30,85,69,56,68,63,56,100,84,53,30.08,29.97,6,1,13,0.08
2013-5-31,90,73,58,71,64,57,100,78,49,30.09,29.90,5,1,12,0.00
2013-6-1,88,74,58,70,65,57,99,77,48,29.96,29.80,10,1,20,0.03
2013-6-2,85,71,61,72,66,-100,99,89,59,29.88,29.66,8,1,19,1.05
2013-6-3,68,59,46,62,54,44,99,84,54,29.87,29.77,5,0,11,0.18
2013-6-4,64,52,41,51,45,40,98,79,54,30.11,29.87,7,1,18,0.00
2013-6-5,68,55,38,49,44,37,98,71,36,30.22,30.11,4,0,9,0.00
2013-6-6,65,55,48,55,49,41,97,83,44,30.18,30.06,6,1,12,0.12
2013-6-7,55,53,51,53,50,47,97,90,82,30.09,29.87,13,4,30,0.42
2013-6-8,60,56,52,58,54,51,98,96,90,30.03,29.78,3,0,10,0.25
2013-6-9,74,61,50,61,56,48,99,85,54,30.21,30.03,5,1,12,0.01
2013-6-10,74,60,45,62,52,44,99,77,45,30.21,29.96,10,2,19,0.08
2013-6-11,60,57,55,57,55,53,98,93,85,29.96,29.59,18,4,33,1.29
2013-6-12,66,57,51,58,54,50,99,90,67,29.86,29.62,6,2,15,0.48
2013-6-13,69,58,44,58,52,43,99,81,53,29.85,29.69,5,0,13,0.01
2013-6-14,76,62,48,62,55,47,99,81,53,29.85,29.70,6,1,15,0.00
2013-6-15,75,58,41,52,47,40,98,73,38,29.98,29.87,5,1,11,0.00
2013-6-16,70,58,45,61,54,44,98,89,58,29.93,29.70,4,0,11,0.27
2013-6-17,74,62,53,64,58,52,99,88,64,29.95,29.77,4,0,13,0.06
2013-6-18,70,57,46,55,50,44,98,80,45,30.01,29.93,5,0,10,0.01
2013-6-19,68,54,38,51,45,37,98,74,47,30.20,29.99,6,1,11,0.00
2013-6-20,76,56,39,55,46,38,98,75,42,30.26,30.19,4,0,10,0.00
2013-6-22,81,70,65,70,66,64,98,87,65,30.17,30.08,4,1,10,0.32
2013-6-23,83,71,64,74,69,63,100,93,70,30.10,29.96,4,0,11,0.98
2013-6-24,85,74,66,76,70,65,99,90,65,30.00,29.88,8,1,13,0.62
2013-6-25,87,69,62,74,67,62,100,93,64,29.94,29.76,7,0,25,1.05
2013-6-26,77,67,62,72,66,62,100,97,76,29.82,29.76,3,0,7,0.74
2013-6-27,85,71,60,73,67,60,100,87,56,29.81,29.72,3,0,9,0.08
2013-6-28,74,67,62,71,64,61,99,92,77,29.72,29.42,15,3,32,0.45
2013-6-29,80,67,61,69,64,60,99,91,62,29.69,29.50,7,1,13,1.03
2013-6-30,82,70,61,72,66,61,100,89,61,29.95,29.68,2,0,8,0.60
2013-7-1,75,67,62,69,66,61,100,95,77,30.09,29.94,5,0,9,0.57
2013-7-2,79,67,59,74,66,59,100,95,80,30.14,30.06,2,0,7,0.36
2013-7-3,82,72,66,75,70,66,100,96,77,30.18,30.11,2,0,8,0.60
2013-7-4,87,74,64,78,71,64,100,93,65,30.19,30.09,9,1,21,0.57
2013-7-5,88,72,63,77,70,63,100,93,66,30.16,30.05,4,0,12,0.86
2013-7-6,82,73,67,74,70,66,100,91,64,30.09,30.01,5,0,8,0.64
2013-7-7,84,71,59,73,67,59,100,87,61,30.05,29.94,6,1,11,0.02
2013-7-8,80,70,67,73,67,-100,99,96,74,30.06,29.94,3,0,7,0.10
2013-7-9,85,73,64,75,69,64,100,87,63,30.09,29.98,3,0,10,0.01
2013-7-10,82,74,71,74,68,-100,93,84,72,29.99,29.72,7,2,17,0.01
2013-7-11,79,71,59,72,66,58,99,86,57,30.03,29.73,5,0,16,0.14
2013-7-12,79,65,52,66,59,51,99,83,55,30.21,30.03,3,0,11,0.04
2013-7-13,82,70,54,69,62,53,99,80,51,30.30,30.22,6,1,12,0.00
2013-7-14,88,75,65,74,70,64,98,87,56,30.33,30.23,0,0,0,0.00
2013-7-15,91,76,65,75,69,65,100,83,50,30.25,30.16,4,0,9,0.00
2013-7-16,89,75,62,75,69,61,99,83,54,30.24,30.18,3,0,8,0.00
2013-7-17,93,77,64,76,71,63,99,83,55,30.22,29.98,5,0,9,0.24
2013-7-18,88,74,65,77,72,65,100,92,60,30.06,29.93,1,0,16,0.40
2013-7-19,91,78,68,77,72,67,100,83,55,29.94,29.66,9,1,19,0.09
2013-7-20,79,71,64,73,66,-100,99,87,60,29.85,29.65,5,1,14,0.13
2013-7-21,77,65,55,63,58,54,99,82,50,30.04,29.84,3,0,8,0.01
2013-7-22,82,66,51,69,60,50,99,84,57,30.05,29.85,5,0,8,0.00
2013-7-23,79,69,62,71,67,61,99,95,73,29.85,29.56,3,0,7,0.27
2013-7-24,65,61,53,65,58,50,100,91,72,30.06,29.58,3,0,13,0.28
2013-7-25,72,56,42,60,50,41,98,83,56,30.15,30.06,3,0,8,0.01
2013-7-26,72,59,48,64,56,47,99,90,70,30.13,30.03,3,0,9,0.00
2013-7-27,82,65,47,66,58,46,99,81,52,30.06,29.96,4,0,8,0.00
2013-7-28,73,64,56,65,61,55,99,90,74,29.98,29.95,7,1,11,0.00
2013-7-29,78,71,61,67,63,58,97,76,51,30.09,29.99,5,1,12,0.00
2013-7-30,75,64,55,63,59,54,99,84,58,30.14,30.07,3,0,8,0.00
2013-7-31,81,66,51,66,58,50,99,79,40,30.16,30.02,3,0,6,0.00
2013-8-1,78,65,56,65,62,55,99,91,60,30.02,29.83,6,1,14,0.42
2013-8-2,78,67,58,67,62,57,99,84,51,29.85,29.78,3,0,10,0.17
2013-8-3,72,63,56,63,59,55,99,88,65,29.85,29.75,4,1,12,0.32
2013-8-4,70,61,54,61,57,53,99,89,61,29.95,29.83,6,1,17,0.06
2013-8-5,70,58,47,55,51,41,98,78,40,30.06,29.95,6,1,13,0.04
2013-8-6,75,59,45,59,52,44,99,81,50,30.13,30.06,6,0,10,0.00
2013-8-7,79,66,50,65,58,49,99,79,57,30.14,30.01,5,1,13,0.00
2013-8-8,84,73,68,71,66,61,94,81,62,30.01,29.95,6,1,13,0.00
2013-8-9,76,70,66,73,69,65,99,97,87,29.97,29.78,4,0,13,0.68
2013-8-10,73,64,51,66,57,50,100,81,50,30.04,29.81,5,1,14,0.01
2013-8-11,76,61,48,63,55,47,99,82,50,30.10,29.99,4,0,9,0.00
2013-8-12,76,63,53,66,57,52,98,84,52,30.03,29.91,4,0,12,0.00
2013-8-13,74,62,55,65,59,-100,99,92,72,29.91,29.69,6,0,12,0.10
2013-8-14,64,58,50,61,56,49,99,93,74,29.97,29.70,3,0,8,0.39
2013-8-15,70,50,44,57,33,-100,99,79,55,30.11,29.97,4,0,10,0.01
2013-8-16,76,60,45,63,51,-100,99,81,56,30.22,30.10,4,0,11,0.17
2013-8-17,75,61,50,62,56,49,99,85,54,30.32,30.22,3,0,8,0.17
2013-8-18,52,48,48,51,44,-100,99,94,97,30.29,30.27,0,0,1,0.00
2013-8-22,68,67,65,67,66,65,99,98,97,29.89,29.84,0,0,2,0.09
2013-8-23,71,61,48,65,57,47,99,86,60,30.21,29.89,6,1,11,0.10
2013-8-24,74,56,41,59,50,40,99,84,47,30.36,30.20,3,0,7,0.00
2013-8-25,76,59,43,61,51,-100,99,80,44,30.39,30.14,3,0,8,0.01
2013-8-26,71,65,60,68,64,58,99,96,85,30.15,29.89,6,0,11,0.20
2013-8-27,80,72,66,72,68,66,100,89,70,29.94,29.88,3,0,6,0.01
2013-8-28,82,73,64,74,70,63,98,90,71,29.97,29.88,2,0,18,0.18
2013-8-29,80,68,60,69,64,59,99,87,66,30.07,29.97,4,1,10,0.01
2013-8-30,83,70,59,72,66,59,100,89,64,30.02,29.78,5,0,10,0.01
2013-8-31,75,70,66,72,68,65,99,94,79,29.82,29.77,2,0,12,0.07
2013-9-1,80,69,63,72,65,-100,100,90,66,29.89,29.82,2,0,6,0.02
2013-9-2,79,72,62,71,68,61,99,88,72,29.85,29.68,5,1,16,0.26
2013-9-3,75,63,58,66,61,58,100,93,64,29.82,29.71,6,0,11,0.56
2013-9-4,70,61,52,62,59,52,99,92,68,29.94,29.82,6,0,12,0.35
2013-9-5,62,54,40,59,48,39,99,83,55,30.18,29.91,8,1,18,0.34
2013-9-6,65,49,35,50,42,34,99,82,45,30.27,30.08,2,0,9,0.00
2013-9-7,71,58,47,58,51,46,98,81,51,30.07,29.85,4,1,12,0.01
2013-9-8,59,52,39,54,46,-100,98,85,58,30.11,29.78,5,1,18,0.40
2013-9-9,67,52,35,52,44,34,99,78,46,30.20,30.06,6,1,12,0.01
2013-9-10,72,64,56,70,62,51,98,93,76,30.07,29.97,3,1,9,0.46
2013-9-11,88,75,66,78,71,65,100,89,68,30.03,29.91,6,1,23,0.05
2013-9-12,77,68,64,73,67,64,99,96,83,29.95,29.65,4,0,8,0.44
2013-9-13,64,56,51,64,56,51,100,99,96,29.87,29.63,6,1,10,0.25
2013-9-14,58,50,42,52,49,41,99,95,79,30.09,29.87,3,0,10,0.03
2013-9-15,63,48,37,56,44,-100,100,92,65,30.14,30.02,1,0,6,0.01
2013-9-16,53,47,34,52,44,33,99,91,67,30.34,30.03,4,1,13,0.24
2013-9-17,60,43,30,49,39,29,99,88,60,30.48,30.33,3,0,7,0.01
2013-9-18,45,37,34,45,37,34,99,98,98,30.33,30.15,0,0,2,0.01
2013-9-19,73,52,39,58,48,38,100,88,51,30.17,30.05,3,0,5,0.00
2013-9-20,77,59,44,63,53,44,100,84,48,30.10,29.91,4,0,14,0.01
2013-9-21,75,67,60,61,56,45,91,70,35,29.93,29.59,11,3,26,0.04
2013-9-22,63,53,45,61,50,-100,98,94,86,29.90,29.57,5,0,16,0.65
2013-9-23,48,45,41,44,42,39,96,90,81,30.06,29.90,4,0,8,0.02
2013-9-24,59,49,44,48,44,41,97,84,60,30.05,29.91,5,1,11,0.00
2013-9-25,61,48,37,52,45,36,99,89,69,30.03,29.94,4,0,10,0.00
2013-9-26,60,47,34,51,44,33,100,89,69,30.19,30.04,5,0,10,0.01
2013-9-27,64,54,44,56,50,43,98,88,66,30.31,30.18,6,0,12,0.01
2013-9-28,72,52,39,61,49,38,100,90,57,30.37,30.25,2,0,5,0.01
2013-9-29,72,53,41,61,48,-100,100,87,58,30.25,30.06,3,0,7,0.01
2013-9-30,73,54,40,59,50,39,100,89,56,30.10,29.98,3,0,6,0.01
2013-10-1,57,52,46,56,51,45,98,98,97,30.00,29.91,0,0,2,0.01
2013-10-2,74,59,45,64,55,44,100,90,68,29.91,29.84,3,0,10,0.01
2013-10-3,69,55,39,55,49,38,99,82,50,30.13,30.03,2,0,6,0.01
2013-10-4,63,53,40,58,51,39,100,92,75,30.12,30.06,1,0,6,0.01
2013-10-5,65,55,46,55,51,45,98,88,58,30.16,30.08,3,0,7,0.01
2013-10-6,57,52,46,52,48,44,98,86,62,30.16,30.01,14,3,28,0.14
2013-10-7,71,60,51,64,56,50,98,88,73,30.01,29.56,11,4,25,0.16
2013-10-8,57,48,34,50,42,33,98,81,50,30.39,29.88,7,1,14,0.58
2013-10-9,64,45,31,49,39,30,99,84,47,30.46,30.35,4,0,9,0.01
2013-10-10,63,46,34,52,43,33,99,88,56,30.35,30.19,2,0,6,0.01
2013-10-11,70,49,36,55,44,35,99,86,44,30.20,30.14,3,0,8,0.00
2013-10-12,72,54,38,57,47,37,99,81,50,30.34,30.19,5,1,14,0.01
2013-10-13,69,55,45,52,47,-100,96,76,50,30.40,30.29,4,1,13,0.01
2013-10-14,55,52,47,54,51,45,99,95,87,30.32,30.25,1,0,4,0.17
2013-10-15,64,53,40,59,51,40,100,94,80,30.30,30.10,5,0,12,0.06
2013-10-16,65,60,56,54,52,50,91,78,59,30.10,29.81,11,2,17,0.02
2013-10-17,63,56,47,56,52,46,98,89,69,29.84,29.71,5,0,9,0.22
2013-10-18,58,52,43,53,47,37,99,83,60,29.88,29.62,8,2,14,0.43
2013-10-19,60,50,38,47,43,37,97,79,56,29.91,29.66,4,1,16,0.12
2013-10-20,54,47,35,47,38,-100,94,73,50,29.99,29.62,9,2,19,0.06
2013-10-21,59,46,31,45,38,30,99,76,50,30.06,29.87,5,1,14,0.00
2013-10-22,58,47,31,48,41,30,97,82,51,29.87,29.70,6,1,18,0.13
2013-10-23,49,38,30,39,34,29,98,84,55,29.78,29.61,6,0,10,0.02
2013-10-24,43,36,28,37,33,27,96,88,67,29.87,29.66,5,1,15,0.17
2013-10-25,41,37,34,35,31,28,97,78,65,30.12,29.87,6,1,12,0.09
2013-10-26,44,37,28,36,32,26,95,84,60,30.11,29.78,10,1,21,0.08
2013-10-27,45,40,31,38,32,-100,94,76,62,30.01,29.73,9,2,15,0.02
2013-10-28,44,35,23,41,29,-100,96,83,56,30.37,29.98,15,2,24,0.07
2013-10-29,40,26,18,29,22,17,96,84,56,30.47,30.34,4,0,8,0.01
2013-10-30,41,32,24,34,29,22,95,89,75,30.34,30.18,1,0,6,0.01
2013-10-31,58,44,33,57,42,32,98,93,74,30.21,29.63,3,1,13,0.45
2013-11-1,66,60,52,61,52,43,97,76,46,29.63,29.26,12,4,35,0.44
2013-11-2,54,45,34,46,41,31,96,86,70,29.90,29.59,7,1,12,0.12
2013-11-3,35,28,20,30,20,-100,92,73,52,30.47,29.90,9,1,15,0.00
2013-11-4,36,25,15,21,18,13,94,78,49,30.68,30.48,5,0,8,0.00
2013-11-5,48,39,30,36,26,16,75,60,48,30.63,30.41,8,1,15,0.00
2013-11-6,56,50,38,46,40,33,84,71,61,30.41,29.87,9,2,21,0.00
2013-11-7,56,45,33,52,42,26,98,87,72,29.86,29.71,9,2,24,0.49
2013-11-8,36,33,29,30,28,24,96,82,69,30.09,29.83,9,2,18,0.01
2013-11-9,39,34,29,32,24,-100,84,70,53,30.18,29.92,5,1,11,0.00
2013-11-10,44,38,34,39,36,32,97,91,79,29.91,29.67,7,1,13,0.00
2013-11-11,40,35,31,35,30,27,94,82,69,30.09,29.82,9,2,18,0.00
2013-11-12,29,24,22,27,20,16,94,82,75,30.23,29.93,9,2,15,0.00
2013-11-13,29,24,17,22,16,12,90,73,55,30.30,30.01,9,1,13,0.00
2013-11-14,41,33,28,30,26,21,94,76,61,30.04,29.98,7,1,16,0.00
2013-11-15,50,38,30,29,26,22,90,64,36,30.16,30.03,6,1,14,0.00
2013-11-16,54,38,30,33,27,-100,93,71,37,30.27,30.15,5,0,10,0.00
2013-11-17,52,49,31,49,43,30,95,79,57,30.23,29.69,13,4,30,0.00
2013-11-18,56,49,38,55,43,28,96,78,56,29.66,29.38,15,4,29,0.00
2013-11-19,37,30,27,32,21,18,87,71,63,30.34,29.64,14,5,23,0.00
2013-11-20,32,25,17,20,18,15,93,77,58,30.62,30.35,7,1,13,0.00
2013-11-21,42,28,15,25,18,13,93,72,34,30.61,30.34,3,0,9,0.00
2013-11-22,40,35,30,39,33,26,98,94,86,30.33,29.80,6,0,11,0.00
2013-11-23,39,28,18,38,22,-100,98,81,64,29.96,29.74,12,4,21,0.00
2013-11-24,18,15,11,14,7,1,90,72,58,30.21,29.84,13,6,25,0.00
2013-11-25,29,16,1,16,6,-2,88,66,40,30.35,30.12,8,1,20,0.00
2013-11-26,34,31,29,30,23,15,90,72,53,30.21,29.93,10,2,18,0.00
2013-11-27,39,33,27,37,32,26,98,95,89,29.93,29.37,15,2,33,0.00
2013-12-4,36,30,23,30,27,22,96,89,74,30.14,29.99,3,0,7,0.00
2013-12-5,53,43,25,50,40,24,98,90,84,30.10,29.82,8,2,22,0.00
2013-12-6,49,35,31,48,33,28,98,94,82,30.13,29.88,6,0,10,0.00
2013-12-7,31,26,20,27,16,-100,85,69,58,30.43,30.10,7,1,14,0.00
2013-12-8,25,21,16,16,12,9,83,69,57,30.55,30.43,6,0,12,0.00
2013-12-9,36,29,23,33,23,12,95,80,60,30.42,29.80,14,4,34,0.00
2013-12-10,34,9,25,31,-63,-100,89,23,60,29.90,29.76,8,2,15,0.00
2013-12-29,36,31,23,35,30,22,98,97,92,29.97,29.56,3,0,13,0.00
2013-12-30,33,16,0,33,13,-5,100,85,73,30.19,29.56,13,2,23,0.00
2013-12-31,14,7,1,12,2,-7,91,79,62,30.17,29.95,3,0,6,0.00
2014-1-1,11,6,-4,8,2,-12,90,81,68,30.41,30.08,4,1,8,0.00
2014-1-2,-4,-8,-12,-9,-12,-16,83,81,70,30.39,29.99,4,1,8,0.00